Tracking 20472 objects as of 28-Feb-2020
HD Live streaming from Space Station
objects crossing your sky now

OPS 5113 (NAVSTAR 3)

Track OPS 5113 (NAVSTAR 3) now!
OPS 5113 (NAVSTAR 3) is classified as:


NORAD ID: 11054
Int'l Code: 1978-093A
Perigee: 20,583.5 km
Apogee: 21,079.5 km
Inclination: 64.1 °
Period: 744.2 minutes
Semi major axis: 27202 km
RCS: 0.5283 m2 (medium)
Launch date: October 7, 1978
Source: United States (US)
Launch site: AIR FORCE WESTERN TEST RANGE (AFWTR)
aabbcc
Your satellite tracking list
Your tracking list is empty




NASA's NSSDC Master Catalog

Two Line Element Set (TLE):
1 11054U 78093A   20053.65893590 -.00000093 +00000-0 +00000-0 0  9996
2 11054 064.0702 007.7970 0091160 231.7303 302.5000 01.93503703296040
Source of the keplerian elements: AFSPC